Regional Weather Roundup
Issued by NWS

Home | Current Version | Previous Version | Text Only | Print | Product List | Glossary Off
Versions: 1 2 3 4 5 6 7 8 9 10 11 12 13 14 15 16 17 18 19 20 21 22 23 24 25 26 27 28 29 30 31 32 33 34 35 36 37 38 39 40 41 42 43 44 45 46 47 48 49 50

000
ASUS45 KCYS 282010
RWRWY

WYOMING REGIONAL WEATHER ROUNDUP
NATIONAL WEATHER SERVICE CHEYENNE WY
200 PM MDT THU AUG 28 2014

NOTE:  "FAIR" INDICATES FEW OR NO CLOUDS BELOW 12,000 FEET
WITH NO SIGNIFICANT WEATHER AND/OR OBSTRUCTIONS TO VISIBILITY.

WYZ001-282100-
YELLOWSTONE NATIONAL PARK

CITY           SKY/WX    TMP DP  RH WIND       PRES   REMARKS
LK YELLOWSTONE   N/A     68  37  32 VRB7      30.33F
W YELLOWSTONE  NOT AVBL

$$
WYZ002>013-054>058-071-098>099-282100-
NORTHERN WYOMING

CITY           SKY/WX    TMP DP  RH WIND       PRES   REMARKS
JACKSON        SUNNY     72  39  30 CALM      30.25F
CODY           CLOUDY    77  48  36 N9        30.09F
GREYBULL       SUNNY     82  46  28 CALM      30.03F
WORLAND        SUNNY     80  47  31 VRB3      30.06F
SHERIDAN       MOSUNNY   86  44  23 NW13G24   30.02F
BUFFALO        SUNNY     80  39  23 N17G24    30.09F
GILLETTE       SUNNY     81  44  27 N10G16    30.03F
HULETT         FAIR      81  46  30 MISG      30.02
NEWCASTLE      FAIR      77  45  31 MISG      30.03

$$
WYZ014>020-022>026-101>103-282100-
CENTRAL WYOMING

CITY           SKY/WX    TMP DP  RH WIND       PRES   REMARKS
BIG PINEY      MOSUNNY   73  38  27 NW17G23   30.29F
PINEDALE       CLEAR     70  36  28 NW12G22   30.29S
DUBOIS         FAIR      72  32  23 NW10G20   30.26S
LANDER         MOSUNNY   78  40  25 SE10      30.15F
RIVERTON       SUNNY     76  43  30 SE5       30.16F
CASPER         MOSUNNY   79  38  22 N8        30.12F
DOUGLAS        PTSUNNY   77  47  34 NE8       30.10F

$$
WYZ021-027>030-104>119-282100-
SOUTHERN WYOMING

CITY           SKY/WX    TMP DP  RH WIND       PRES   REMARKS
EVANSTON       PTSUNNY   69  40  34 N13       30.33F
KEMMERER       PTCLDY    70  43  37 W14G24    30.33F
FORT BRIDGER   MOCLDY    70  45  40 W12       30.35F
ROCK SPRINGS   SUNNY     70  38  31 NW14      30.28F
DIXON          FAIR      66  51  57 SW6       30.30F
RAWLINS        MOSUNNY   73  34  23 N14G26    30.24F
SARATOGA       CLOUDY    63  50  63 NE5       30.27F
LARAMIE        CLOUDY    54  49  83 S7        30.26F
CHEYENNE       LGT RAIN  55  49  80 NW14G23   30.20R
TORRINGTON     LGT RAIN  64  58  80 NW12      30.09S
PINE BLUFFS    FAIR      59  54  82 NW17G24   30.14S

$$


USA.gov is the U.S. government's official web portal to all federal, state and local government web resources and services.